Concord, NC

10:44 PM EST on February 25, 2017 (GMT -0500)
Concord Regional

Weather History for KJQF - May, 2012

Change the Weather History Date:

Monday, May 21, 2012

  Actual Average (KCLT) Record (KCLT)
Temperature  
Mean Temperature 70 °F -  
Max Temperature 82 °F 80 °F 97 °F (1941)
Min Temperature 59 °F 59 °F 41 °F (1894)
Cooling Degree Days 6    
Growing Degree Days 20 (Base 50)    
Moisture  
Dew Point 58 °F    
Average Humidity 74    
Maximum Humidity 94    
Minimum Humidity 42    
Precipitation  
Precipitation 0.04 in - - ()
Sea Level Pressure  
Sea Level Pressure 30.04 in    
Wind  
Wind Speed 1 mph (NNW)    
Max Wind Speed 15 mph    
Max Gust Speed 20 mph    
Visibility 10 miles    
Events Rain    
Averages and records for this station are not official NWS values.
T = Trace of Precipitation, MM = Missing Value Source: NWS Daily Summary

Daily Weather History Graph

Daily Weather History Graph

Search for Another Location

Airport or City:

Trip Planner

Search our weather history database for the weather conditions in past years. The results will help you decide how hot, cold, wet, or windy it might be!

Date:

Astronomy

May. 21, 2012 Rise Set
Actual Time 6:13 AM EDT 8:25 PM EDT
Civil Twilight 5:45 AM EDT 8:54 PM EDT
Nautical Twilight 5:10 AM EDT 9:29 PM EDT
Astronomical Twilight 4:32 AM EDT 10:07 PM EDT
Moon 6:36 AM EDT (5/21) 9:13 PM EDT (5/21)
Length of Visible Light 15h 08m
Length of Day
14h 11m
New Moon, 0% of the Moon is Illuminated
May 21
New Moon
May 28
First Quarter
Jun 4
Full
Jun 11
Last Quarter
Jun 19
New

Hourly Weather History & Observations

Time (EDT) Temp. Heat Index Dew Point Humidity Pressure Visibility Wind Dir Wind Speed Gust Speed Precip Events Conditions
12:15 AM 62.6 °F - 55.4 °F 77% 30.09 in 10.0 mi Calm Calm - N/A   Clear
12:35 AM 62.6 °F - 55.4 °F 77% 30.09 in 10.0 mi Calm Calm - N/A   Clear
12:55 AM 60.8 °F - 55.4 °F 82% 30.09 in 10.0 mi Calm Calm - N/A   Clear
1:15 AM 60.8 °F - 55.4 °F 82% 30.09 in 10.0 mi Calm Calm - N/A   Clear
1:35 AM 59.0 °F - 55.4 °F 88% 30.09 in 10.0 mi Calm Calm - N/A   Clear
1:55 AM 60.8 °F - 55.4 °F 82% 30.09 in 10.0 mi Calm Calm - N/A   Clear
2:15 AM 59.0 °F - 55.4 °F 88% 30.08 in 10.0 mi Calm Calm - N/A   Clear
2:35 AM 59.0 °F - 55.4 °F 88% 30.08 in 10.0 mi Calm Calm - N/A   Scattered Clouds
2:55 AM 60.8 °F - 55.4 °F 82% 30.08 in 10.0 mi Calm Calm - N/A   Mostly Cloudy
3:15 AM 62.6 °F - 55.4 °F 77% 30.09 in 10.0 mi Calm Calm - N/A   Scattered Clouds
3:35 AM 62.6 °F - 55.4 °F 77% 30.09 in 10.0 mi Calm Calm - N/A   Mostly Cloudy
3:55 AM 62.6 °F - 57.2 °F 82% 30.09 in 10.0 mi North 4.6 mph - N/A   Overcast
4:15 AM 62.6 °F - 57.2 °F 82% 30.09 in 10.0 mi Calm Calm - N/A   Overcast
4:35 AM 62.6 °F - 57.2 °F 82% 30.10 in 10.0 mi Calm Calm - N/A   Overcast
4:55 AM 62.6 °F - 57.2 °F 82% 30.09 in 10.0 mi NW 3.5 mph - N/A   Overcast
5:15 AM 62.6 °F - 57.2 °F 82% 30.10 in 10.0 mi Calm Calm - N/A   Overcast
5:35 AM 62.6 °F - 57.2 °F 82% 30.10 in 10.0 mi NNW 3.5 mph - N/A   Overcast
5:55 AM 62.6 °F - 57.2 °F 82% 30.10 in 10.0 mi Calm Calm - N/A   Overcast
6:15 AM 62.6 °F - 57.2 °F 82% 30.10 in 10.0 mi Calm Calm - N/A   Overcast
6:35 AM 62.6 °F - 57.2 °F 82% 30.10 in 10.0 mi Calm Calm - N/A   Scattered Clouds
6:55 AM 62.6 °F - 59.0 °F 88% 30.09 in 10.0 mi Calm Calm - N/A   Clear
7:15 AM 62.6 °F - 59.0 °F 88% 30.10 in 10.0 mi Calm Calm - N/A   Scattered Clouds
7:35 AM 62.6 °F - 59.0 °F 88% 30.10 in 10.0 mi Calm Calm - N/A   Mostly Cloudy
7:55 AM 64.4 °F - 60.8 °F 88% 30.10 in 10.0 mi Calm Calm - N/A   Mostly Cloudy
8:55 AM 68.0 °F - 60.8 °F 78% 30.09 in 10.0 mi Calm Calm - N/A   Scattered Clouds
9:55 AM 71.6 °F - 60.8 °F 69% 30.09 in 10.0 mi Calm Calm - N/A   Scattered Clouds
10:55 AM 73.4 °F - 60.8 °F 65% 30.07 in 10.0 mi Calm Calm - N/A   Scattered Clouds
11:55 AM 77.0 °F - 59.0 °F 54% 30.06 in 10.0 mi Calm Calm - N/A   Mostly Cloudy
12:55 PM 77.0 °F - 59.0 °F 54% 30.03 in 10.0 mi Calm Calm - N/A   Mostly Cloudy
1:55 PM 80.6 °F 80.8 °F 57.2 °F 45% 30.01 in 10.0 mi Calm Calm - N/A   Scattered Clouds
2:55 PM 82.4 °F 82.0 °F 57.2 °F 42% 29.99 in 10.0 mi Calm Calm - N/A   Scattered Clouds
3:55 PM 82.4 °F 82.0 °F 57.2 °F 42% 29.97 in 10.0 mi SSW 3.5 mph - N/A   Scattered Clouds
4:55 PM 80.6 °F 80.8 °F 57.2 °F 45% 29.94 in 10.0 mi Calm Calm - N/A   Scattered Clouds
5:55 PM 82.4 °F 82.5 °F 59.0 °F 45% 29.92 in 10.0 mi Calm Calm - N/A   Clear
6:55 PM 78.8 °F - 62.6 °F 57% 29.92 in 10.0 mi Calm Calm - N/A   Clear
7:55 PM 75.2 °F - 64.4 °F 69% 29.93 in 10.0 mi Calm Calm - N/A   Clear
8:55 PM 71.6 °F - 62.6 °F 73% 29.94 in 10.0 mi Calm Calm - N/A   Mostly Cloudy
9:05 PM 73.4 °F - 62.6 °F 69% 29.95 in 10.0 mi North 15.0 mph 19.6 mph N/A   Mostly Cloudy
9:15 PM 71.6 °F - 60.8 °F 69% 29.95 in 10.0 mi North 9.2 mph 17.3 mph N/A   Overcast
9:35 PM 71.6 °F - 57.2 °F 60% 29.96 in 10.0 mi West 5.8 mph - N/A Rain Light Rain
9:55 PM 69.8 °F - 57.2 °F 64% 29.97 in 10.0 mi WNW 4.6 mph - N/A   Overcast
10:15 PM 71.6 °F - 55.4 °F 57% 29.99 in 10.0 mi NW 3.5 mph - N/A   Overcast
10:35 PM 68.0 °F - 62.6 °F 83% 29.99 in 10.0 mi West 10.4 mph - N/A Rain Rain
10:55 PM 64.4 °F - 60.8 °F 88% 29.99 in 2.5 mi North 3.5 mph - 0.03 in Rain Heavy Rain
11:15 PM 62.6 °F - 60.8 °F 94% 29.99 in 4.0 mi SE 3.5 mph - N/A Rain Rain
11:35 PM 64.4 °F - 60.8 °F 88% 29.96 in 10.0 mi SE 5.8 mph - 0.01 in Rain Light Rain
11:55 PM 64.4 °F - 60.8 °F 88% 29.96 in 7.0 mi East 3.5 mph - 0.01 in Rain Light Rain